| time (UTC) | temp F | wind direction | speed knots | gust knots | rain 1hr in | rain 24hr in | rain mn in | humidity % | barometer mb |
| 20260503050823 | 61 | 202 | 11.3 | 13.9 | 0.00 | 0.00 | 0.00 | 41 | 1014.0 |
| 20260503050318 | 61 | 212 | 7.8 | 11.3 | 0.00 | 0.00 | 0.00 | 42 | 1014.0 |
| 20260503045828 | 62 | 180 | 7.8 | 12.2 | 0.00 | 0.00 | 0.00 | 41 | 1014.0 |
| 20260503045321 | 62 | 205 | 8.7 | 11.3 | 0.00 | 0.00 | 0.00 | 43 | 1013.9 |
| 20260503044832 | 62 | 204 | 7.8 | 11.3 | 0.00 | 0.00 | 0.00 | 42 | 1013.9 |
| 20260503044323 | 61 | 201 | 9.6 | 11.3 | 0.00 | 0.00 | 0.00 | 42 | 1014.0 |
| 20260503043814 | 62 | 190 | 8.7 | 13.9 | 0.00 | 0.00 | 0.00 | 42 | 1013.9 |
| 20260503043328 | 62 | 217 | 10.4 | 13.9 | 0.00 | 0.00 | 0.00 | 41 | 1013.8 |
| 20260503042819 | 62 | 212 | 9.6 | 13.0 | 0.00 | 0.00 | 0.00 | 42 | 1013.8 |
| 20260503042334 | 63 | 203 | 7.8 | 13.0 | 0.00 | 0.00 | 0.00 | 40 | 1013.8 |
| 20260503041825 | 63 | 211 | 7.0 | 10.4 | 0.00 | 0.00 | 0.00 | 41 | 1013.7 |
| 20260503040835 | 64 | 178 | 3.5 | 5.2 | 0.00 | 0.00 | 0.00 | 39 | 1013.6 |
| 20260503040315 | 64 | 156 | 2.6 | 5.2 | 0.00 | 0.00 | 0.00 | 38 | 1013.6 |
| 20260503035846 | 64 | 182 | 3.5 | 5.2 | 0.00 | 0.00 | 0.00 | 38 | 1013.5 |
| 20260503035315 | 64 | 169 | 2.6 | 4.3 | 0.00 | 0.00 | 0.00 | 39 | 1013.5 |
| 20260503034826 | 64 | 173 | 2.6 | 4.3 | 0.00 | 0.00 | 0.00 | 39 | 1013.5 |
| 20260503034317 | 64 | 121 | 0.0 | 0.0 | 0.00 | 0.00 | 0.00 | 38 | 1013.4 |
| 20260503033327 | 65 | 82 | 0.9 | 3.5 | 0.00 | 0.00 | 0.00 | 39 | 1013.3 |
| 20260503032819 | 65 | 86 | 1.7 | 3.5 | 0.00 | 0.00 | 0.00 | 38 | 1013.1 |
| 20260503032329 | 65 | 99 | 1.7 | 2.6 | 0.00 | 0.00 | 0.00 | 38 | 1012.9 |
| 20260503031838 | 65 | 78 | 0.9 | 3.5 | 0.00 | 0.00 | 0.00 | 37 | 1012.9 |
| 20260503031329 | 66 | 23 | 1.7 | 3.5 | 0.00 | 0.00 | 0.00 | 37 | 1012.8 |
| 20260503030820 | 66 | 55 | 0.9 | 2.6 | 0.00 | 0.00 | 0.00 | 37 | 1012.6 |
| 20260503030337 | 66 | 55 | 0.9 | 2.6 | 0.00 | 0.00 | 0.00 | 37 | 1012.6 |
| 20260503025828 | 66 | 78 | 0.9 | 2.6 | 0.00 | 0.00 | 0.00 | 36 | 1012.5 |
| 20260503025320 | 67 | 57 | 0.9 | 2.6 | 0.00 | 0.00 | 0.00 | 36 | 1012.5 |
| 20260503024331 | 67 | 57 | 0.0 | 3.5 | 0.00 | 0.00 | 0.00 | 35 | 1012.5 |
| 20260503023822 | 68 | 101 | 1.7 | 3.5 | 0.00 | 0.00 | 0.00 | 35 | 1012.5 |
| 20260503023314 | 68 | 34 | 0.0 | 1.7 | 0.00 | 0.00 | 0.00 | 34 | 1012.5 |
| 20260503022826 | 68 | 34 | 0.9 | 2.6 | 0.00 | 0.00 | 0.00 | 34 | 1012.6 |
| 20260503022339 | 68 | 34 | 0.9 | 2.6 | 0.00 | 0.00 | 0.00 | 34 | 1012.5 |
| 20260503021849 | 69 | 34 | 0.0 | 1.7 | 0.00 | 0.00 | 0.00 | 33 | 1012.4 |
| 20260503020820 | 69 | 34 | 0.9 | 2.6 | 0.00 | 0.00 | 0.00 | 34 | 1012.4 |
| 20260503020328 | 69 | 360 | 0.9 | 2.6 | 0.00 | 0.00 | 0.00 | 32 | 1012.4 |
| 20260503015821 | 69 | 360 | 0.9 | 1.7 | 0.00 | 0.00 | 0.00 | 33 | 1012.3 |
| 20260503015337 | 69 | 360 | 0.9 | 3.5 | 0.00 | 0.00 | 0.00 | 33 | 1012.3 |
| 20260503014829 | 69 | 355 | 0.9 | 3.5 | 0.00 | 0.00 | 0.00 | 33 | 1012.3 |
| 20260503014321 | 70 | 38 | 0.0 | 3.5 | 0.00 | 0.00 | 0.00 | 34 | 1012.4 |
| 20260503013833 | 70 | 38 | 1.7 | 3.5 | 0.00 | 0.00 | 0.00 | 33 | 1012.3 |
| 20260503013324 | 70 | 42 | 0.0 | 2.6 | 0.00 | 0.00 | 0.00 | 34 | 1012.3 |
| 20260503012816 | 70 | 42 | 0.9 | 2.6 | 0.00 | 0.00 | 0.00 | 33 | 1012.3 |
| 20260503012327 | 70 | 75 | 0.0 | 2.6 | 0.00 | 0.00 | 0.00 | 33 | 1012.3 |
| 20260503011819 | 70 | 75 | 1.7 | 3.5 | 0.00 | 0.00 | 0.00 | 35 | 1012.3 |
| 20260503011327 | 70 | 42 | 0.9 | 3.5 | 0.00 | 0.00 | 0.00 | 35 | 1012.4 |
| 20260503010820 | 70 | 49 | 1.7 | 5.2 | 0.00 | 0.00 | 0.00 | 32 | 1012.3 |
| 20260503010336 | 71 | 31 | 2.6 | 5.2 | 0.00 | 0.00 | 0.00 | 30 | 1012.4 |
| 20260503005828 | 71 | 17 | 2.6 | 5.2 | 0.00 | 0.00 | 0.00 | 34 | 1012.4 |
| 20260503005321 | 71 | 320 | 1.7 | 7.8 | 0.00 | 0.00 | 0.00 | 35 | 1012.4 |
| 20260503004854 | 71 | 19 | 1.7 | 5.2 | 0.00 | 0.00 | 0.00 | 33 | 1012.4 |
| 20260503004324 | 71 | 26 | 1.7 | 5.2 | 0.00 | 0.00 | 0.00 | 33 | 1012.4 |
| 20260503003836 | 71 | 15 | 2.6 | 4.3 | 0.00 | 0.00 | 0.00 | 30 | 1012.5 |
| 20260503003348 | 71 | 42 | 2.6 | 8.7 | 0.00 | 0.00 | 0.00 | 33 | 1012.3 |
| 20260503002818 | 72 | 27 | 4.3 | 8.7 | 0.00 | 0.00 | 0.00 | 30 | 1012.4 |
| 20260503002329 | 72 | 15 | 2.6 | 5.2 | 0.00 | 0.00 | 0.00 | 34 | 1012.4 |
| 20260503001821 | 72 | 47 | 2.6 | 5.2 | 0.00 | 0.00 | 0.00 | 32 | 1012.3 |
| 20260503001317 | 71 | 24 | 2.6 | 7.0 | 0.00 | 0.00 | 0.00 | 35 | 1012.4 |
| 20260503000829 | 72 | 19 | 4.3 | 7.0 | 0.00 | 0.00 | 0.00 | 31 | 1012.4 |
| 20260503000318 | 72 | 36 | 2.6 | 7.0 | 0.00 | 0.00 | 0.00 | 34 | 1012.4 |
| 20260502235345 | 71 | 360 | 2.6 | 7.8 | 0.00 | 0.00 | 0.00 | 35 | 1012.4 |
| 20260502234816 | 71 | 39 | 3.5 | 5.2 | 0.00 | 0.00 | 0.00 | 31 | 1012.4 |
| 20260502234327 | 71 | 24 | 1.7 | 5.2 | 0.00 | 0.00 | 0.00 | 38 | 1012.5 |
| 20260502233821 | 71 | 32 | 2.6 | 7.0 | 0.00 | 0.00 | 0.00 | 32 | 1012.4 |
| 20260502233332 | 71 | 38 | 3.5 | 9.6 | 0.00 | 0.00 | 0.00 | 32 | 1012.4 |
| 20260502232823 | 71 | 27 | 3.5 | 9.6 | 0.00 | 0.00 | 0.00 | 33 | 1012.6 |
| 20260502232316 | 72 | 40 | 3.5 | 9.6 | 0.00 | 0.00 | 0.00 | 31 | 1012.5 |
| 20260502231826 | 72 | 16 | 3.5 | 9.6 | 0.00 | 0.00 | 0.00 | 31 | 1012.7 |
| 20260502231338 | 72 | 18 | 5.2 | 7.8 | 0.00 | 0.00 | 0.00 | 29 | 1012.6 |
| 20260502230813 | 72 | 12 | 3.5 | 7.0 | 0.00 | 0.00 | 0.00 | 31 | 1012.7 |
| 20260502230324 | 73 | 42 | 2.6 | 7.0 | 0.00 | 0.00 | 0.00 | 33 | 1012.8 |
| 20260502225816 | 72 | 35 | 2.6 | 7.8 | 0.00 | 0.00 | 0.00 | 31 | 1012.8 |
| 20260502225328 | 72 | 34 | 3.5 | 7.8 | 0.00 | 0.00 | 0.00 | 29 | 1012.8 |
| 20260502224820 | 73 | 30 | 2.6 | 6.1 | 0.00 | 0.00 | 0.00 | 31 | 1012.9 |
| 20260502224313 | 73 | 32 | 1.7 | 7.0 | 0.00 | 0.00 | 0.00 | 27 | 1012.9 |
| 20260502223824 | 73 | 57 | 2.6 | 7.0 | 0.00 | 0.00 | 0.00 | 29 | 1012.9 |
| 20260502222814 | 74 | 19 | 3.5 | 7.0 | 0.00 | 0.00 | 0.00 | 28 | 1012.9 |
| 20260502222347 | 74 | 16 | 3.5 | 5.2 | 0.00 | 0.00 | 0.00 | 27 | 1013.0 |
| 20260502221845 | 74 | 355 | 1.7 | 7.0 | 0.00 | 0.00 | 0.00 | 33 | 1013.1 |
| 20260502221315 | 74 | 348 | 4.3 | 7.8 | 0.00 | 0.00 | 0.00 | 27 | 1013.1 |
| 20260502220849 | 74 | 17 | 3.5 | 7.8 | 0.00 | 0.00 | 0.00 | 31 | 1013.1 |
| 20260502220320 | 73 | 17 | 3.5 | 5.2 | 0.00 | 0.00 | 0.00 | 31 | 1013.2 |
| 20260502215852 | 73 | 27 | 3.5 | 5.2 | 0.00 | 0.00 | 0.00 | 30 | 1013.2 |
| 20260502215321 | 73 | 355 | 3.5 | 5.2 | 0.00 | 0.00 | 0.00 | 29 | 1013.1 |
| 20260502214855 | 73 | 339 | 3.5 | 5.2 | 0.00 | 0.00 | 0.00 | 28 | 1013.1 |
| 20260502214327 | 73 | 351 | 2.6 | 5.2 | 0.00 | 0.00 | 0.00 | 26 | 1013.1 |
| 20260502213819 | 73 | 360 | 3.5 | 7.0 | 0.00 | 0.00 | 0.00 | 29 | 1013.3 |
| 20260502213332 | 73 | 41 | 3.5 | 7.0 | 0.00 | 0.00 | 0.00 | 27 | 1013.3 |
| 20260502212823 | 73 | 350 | 3.5 | 7.0 | 0.00 | 0.00 | 0.00 | 26 | 1013.3 |
| 20260502212315 | 74 | 349 | 4.3 | 7.8 | 0.00 | 0.00 | 0.00 | 24 | 1013.3 |
| 20260502211825 | 74 | 355 | 4.3 | 7.8 | 0.00 | 0.00 | 0.00 | 26 | 1013.3 |
| 20260502211321 | 74 | 339 | 3.5 | 7.0 | 0.00 | 0.00 | 0.00 | 27 | 1013.4 |
| 20260502210853 | 74 | 342 | 4.3 | 7.0 | 0.00 | 0.00 | 0.00 | 29 | 1013.4 |
| 20260502210324 | 74 | 355 | 2.6 | 7.0 | 0.00 | 0.00 | 0.00 | 28 | 1013.4 |
| 20260502205817 | 74 | 349 | 2.6 | 4.3 | 0.00 | 0.00 | 0.00 | 27 | 1013.4 |
| 20260502205330 | 74 | 338 | 0.9 | 7.0 | 0.00 | 0.00 | 0.00 | 31 | 1013.5 |
| 20260502204821 | 74 | 53 | 2.6 | 5.2 | 0.00 | 0.00 | 0.00 | 31 | 1013.6 |
| 20260502204353 | 73 | 327 | 2.6 | 7.8 | 0.00 | 0.00 | 0.00 | 33 | 1013.7 |
| 20260502203824 | 72 | 355 | 3.5 | 7.8 | 0.00 | 0.00 | 0.00 | 31 | 1013.7 |
| 20260502203317 | 72 | 355 | 4.3 | 7.8 | 0.00 | 0.00 | 0.00 | 33 | 1013.7 |
| 20260502202848 | 72 | 355 | 4.3 | 7.8 | 0.00 | 0.00 | 0.00 | 36 | 1013.7 |
| 20260502202318 | 72 | 360 | 3.5 | 7.8 | 0.00 | 0.00 | 0.00 | 35 | 1013.8 |
| 20260502201828 | 72 | 355 | 4.3 | 7.0 | 0.00 | 0.00 | 0.00 | 34 | 1013.9 |
| 20260502201323 | 72 | 11 | 3.5 | 8.7 | 0.00 | 0.00 | 0.00 | 36 | 1013.8 |
| 20260502200814 | 72 | 344 | 4.3 | 7.8 | 0.00 | 0.00 | 0.00 | 35 | 1013.9 |
| 20260502200342 | 71 | 338 | 4.3 | 7.0 | 0.00 | 0.00 | 0.00 | 37 | 1014.0 |
| 20260502195814 | 70 | 342 | 3.5 | 7.0 | 0.00 | 0.00 | 0.00 | 34 | 1014.1 |
| 20260502195347 | 70 | 355 | 3.5 | 5.2 | 0.00 | 0.00 | 0.00 | 38 | 1014.2 |
| 20260502194818 | 70 | 326 | 2.6 | 5.2 | 0.00 | 0.00 | 0.00 | 40 | 1014.3 |
| 20260502194331 | 69 | 345 | 3.5 | 7.0 | 0.00 | 0.00 | 0.00 | 38 | 1014.3 |
| 20260502193823 | 69 | 348 | 3.5 | 5.2 | 0.00 | 0.00 | 0.00 | 39 | 1014.3 |
| 20260502193335 | 69 | 16 | 1.7 | 4.3 | 0.00 | 0.00 | 0.00 | 42 | 1014.4 |
| 20260502192816 | 69 | 310 | 2.6 | 5.2 | 0.00 | 0.00 | 0.00 | 38 | 1014.4 |
| 20260502192328 | 69 | 5 | 2.6 | 7.0 | 0.00 | 0.00 | 0.00 | 38 | 1014.4 |
| 20260502191821 | 69 | 320 | 2.6 | 7.0 | 0.00 | 0.00 | 0.00 | 40 | 1014.5 |
| 20260502191313 | 68 | 344 | 3.5 | 7.0 | 0.00 | 0.00 | 0.00 | 42 | 1014.5 |
| 20260502190325 | 67 | 306 | 2.6 | 5.2 | 0.00 | 0.00 | 0.00 | 43 | 1014.5 |
| 20260502185817 | 67 | 332 | 2.6 | 5.2 | 0.00 | 0.00 | 0.00 | 45 | 1014.5 |
| 20260502185327 | 66 | 334 | 3.5 | 5.2 | 0.00 | 0.00 | 0.00 | 43 | 1014.7 |
| 20260502184838 | 66 | 360 | 3.5 | 7.0 | 0.00 | 0.00 | 0.00 | 44 | 1014.7 |
| 20260502184348 | 66 | 32 | 3.5 | 7.0 | 0.00 | 0.00 | 0.00 | 45 | 1014.7 |
| 20260502183819 | 66 | 16 | 1.7 | 4.3 | 0.00 | 0.00 | 0.00 | 46 | 1014.8 |
| 20260502183332 | 65 | 355 | 1.7 | 5.2 | 0.00 | 0.00 | 0.00 | 50 | 1014.9 |
| 20260502182825 | 65 | 19 | 3.5 | 6.1 | 0.00 | 0.00 | 0.00 | 48 | 1015.0 |
| 20260502182315 | 64 | 31 | 1.7 | 7.0 | 0.00 | 0.00 | 0.00 | 47 | 1015.0 |
| 20260502181825 | 64 | 360 | 2.6 | 7.0 | 0.00 | 0.00 | 0.00 | 46 | 1015.0 |
| 20260502181318 | 63 | 351 | 2.6 | 7.0 | 0.00 | 0.00 | 0.00 | 47 | 1015.1 |
| 20260502180830 | 63 | 21 | 2.6 | 5.2 | 0.00 | 0.00 | 0.00 | 50 | 1015.1 |
| 20260502180319 | 62 | 15 | 2.6 | 5.2 | 0.00 | 0.00 | 0.00 | 49 | 1015.3 |
| 20260502170335 | 59 | 16 | 1.7 | 3.5 | 0.00 | 0.00 | 0.00 | 50 | 1015.6 |
| 20260502164327 | 58 | 355 | 1.7 | 3.5 | 0.00 | 0.00 | 0.00 | 52 | 1015.6 |
| 20260502163838 | 58 | 340 | 1.7 | 4.3 | 0.00 | 0.00 | 0.00 | 56 | 1015.6 |
| 20260502163329 | 58 | 340 | 1.7 | 4.3 | 0.00 | 0.00 | 0.00 | 58 | 1015.6 |
| 20260502162819 | 58 | 5 | 2.6 | 3.5 | 0.00 | 0.00 | 0.00 | 58 | 1015.7 |
| 20260502162330 | 58 | 9 | 1.7 | 2.6 | 0.00 | 0.00 | 0.00 | 56 | 1015.6 |
| 20260502161822 | 58 | 355 | 0.9 | 2.6 | 0.00 | 0.00 | 0.00 | 58 | 1015.7 |
| 20260502161313 | 57 | 355 | 0.9 | 2.6 | 0.00 | 0.00 | 0.00 | 58 | 1015.8 |
| 20260502160845 | 57 | 23 | 0.9 | 2.6 | 0.00 | 0.00 | 0.00 | 57 | 1015.7 |
| 20260502160330 | 57 | 30 | 1.7 | 2.6 | 0.00 | 0.00 | 0.00 | 55 | 1015.7 |
| 20260502152327 | 54 | 235 | 0.0 | 2.6 | 0.00 | 0.00 | 0.00 | 56 | 1015.9 |
| 20260502151821 | 54 | 235 | 1.7 | 2.6 | 0.00 | 0.00 | 0.00 | 50 | 1016.0 |
| 20260502151331 | 54 | 235 | 1.7 | 2.6 | 0.00 | 0.00 | 0.00 | 51 | 1015.9 |
| 20260502150827 | 54 | 235 | 0.0 | 0.0 | 0.00 | 0.00 | 0.00 | 52 | 1016.0 |
| 20260502150318 | 54 | 235 | 0.0 | 0.0 | 0.00 | 0.00 | 0.00 | 49 | 1015.9 |
| 20260502130315 | 51 | 254 | 1.7 | 2.6 | 0.00 | 0.00 | 0.00 | 48 | 1015.6 |
| 20260502123312 | 51 | 230 | 0.0 | 1.7 | 0.00 | 0.00 | 0.00 | 47 | 1015.6 |
| 20260502122822 | 51 | 230 | 0.9 | 1.7 | 0.00 | 0.00 | 0.00 | 48 | 1015.6 |
| 20260502122338 | 51 | 229 | 0.9 | 1.7 | 0.00 | 0.00 | 0.00 | 47 | 1015.7 |
| 20260502121829 | 51 | 230 | 0.0 | 2.6 | 0.00 | 0.00 | 0.00 | 47 | 1015.7 |
| 20260502121341 | 51 | 228 | 0.0 | 7.0 | 0.00 | 0.00 | 0.00 | 47 | 1015.7 |
| 20260502120831 | 51 | 238 | 1.7 | 7.8 | 0.00 | 0.00 | 0.00 | 47 | 1015.6 |
| 20260502120319 | 51 | 211 | 4.3 | 7.0 | 0.00 | 0.00 | 0.00 | 47 | 1015.7 |
| 20260502115851 | 51 | 259 | 3.5 | 6.1 | 0.00 | 0.00 | 0.00 | 47 | 1015.7 |
| 20260502115341 | 51 | 161 | 0.9 | 2.6 | 0.00 | 0.00 | 0.00 | 47 | 1015.8 |
| 20260502114833 | 51 | 69 | 0.0 | 0.0 | 0.00 | 0.00 | 0.00 | 47 | 1015.9 |
| 20260502114345 | 51 | 69 | 0.0 | 0.0 | 0.00 | 0.00 | 0.00 | 47 | 1015.8 |
| 20260502113815 | 51 | 69 | 0.0 | 0.0 | 0.00 | 0.00 | 0.00 | 47 | 1015.8 |
| 20260502113329 | 52 | 69 | 0.0 | 0.0 | 0.00 | 0.00 | 0.00 | 47 | 1015.8 |
| 20260502112319 | 52 | 157 | 0.0 | 2.6 | 0.00 | 0.00 | 0.00 | 45 | 1015.9 |
| 20260502111816 | 52 | 157 | 1.7 | 2.6 | 0.00 | 0.00 | 0.00 | 45 | 1016.0 |
| 20260502111329 | 52 | 157 | 1.7 | 2.6 | 0.00 | 0.00 | 0.00 | 45 | 1016.0 |
| 20260502110821 | 52 | 157 | 0.9 | 2.6 | 0.00 | 0.00 | 0.00 | 48 | 1016.0 |
| 20260502110332 | 52 | 157 | 1.7 | 2.6 | 0.00 | 0.00 | 0.00 | 48 | 1016.0 |
| 20260502105823 | 52 | 157 | 0.9 | 4.3 | 0.00 | 0.00 | 0.00 | 49 | 1016.0 |
| 20260502105315 | 52 | 157 | 0.0 | 6.1 | 0.00 | 0.00 | 0.00 | 48 | 1016.0 |
| 20260502104827 | 51 | 144 | 3.5 | 6.1 | 0.00 | 0.00 | 0.00 | 52 | 1016.0 |
| 20260502104320 | 52 | 128 | 4.3 | 6.1 | 0.00 | 0.00 | 0.00 | 52 | 1016.0 |
| 20260502103816 | 52 | 123 | 2.6 | 5.2 | 0.00 | 0.00 | 0.00 | 51 | 1015.9 |
| 20260502103327 | 52 | 119 | 2.6 | 6.1 | 0.00 | 0.00 | 0.00 | 49 | 1016.0 |
| 20260502102818 | 52 | 144 | 4.3 | 6.1 | 0.00 | 0.00 | 0.00 | 50 | 1016.1 |
| 20260502102330 | 52 | 131 | 1.7 | 7.0 | 0.00 | 0.00 | 0.00 | 46 | 1016.0 |
| 20260502101842 | 52 | 139 | 4.3 | 7.0 | 0.00 | 0.00 | 0.00 | 50 | 1016.1 |
| 20260502101332 | 52 | 131 | 2.6 | 3.5 | 0.00 | 0.00 | 0.00 | 48 | 1016.0 |
| 20260502100823 | 52 | 146 | 1.7 | 4.3 | 0.00 | 0.00 | 0.00 | 45 | 1016.1 |
| 20260502100352 | 52 | 143 | 2.6 | 5.2 | 0.00 | 0.00 | 0.00 | 45 | 1016.0 |
| 20260502090827 | 52 | 209 | 7.8 | 8.7 | 0.00 | 0.00 | 0.00 | 40 | 1016.0 |
| 20260502090320 | 53 | 182 | 1.7 | 3.5 | 0.00 | 0.00 | 0.00 | 42 | 1016.0 |
| 20260502070822 | 55 | 67 | 0.9 | 3.5 | 0.00 | 0.00 | 0.00 | 44 | 1015.9 |
| 20260502070314 | 55 | 63 | 1.7 | 5.2 | 0.00 | 0.00 | 0.00 | 43 | 1016.0 |
| 20260502065827 | 55 | 63 | 0.9 | 5.2 | 0.00 | 0.00 | 0.00 | 43 | 1016.0 |
| 20260502065319 | 55 | 140 | 0.9 | 6.1 | 0.00 | 0.00 | 0.00 | 43 | 1015.9 |
| 20260502064830 | 55 | 180 | 2.6 | 6.1 | 0.00 | 0.00 | 0.00 | 43 | 1016.0 |
| 20260502064322 | 55 | 186 | 2.6 | 8.7 | 0.00 | 0.00 | 0.00 | 43 | 1015.9 |
| 20260502063814 | 55 | 175 | 6.1 | 9.6 | 0.00 | 0.00 | 0.00 | 43 | 1015.8 |
| 20260502063326 | 55 | 188 | 7.0 | 10.4 | 0.00 | 0.00 | 0.00 | 44 | 1015.9 |
| 20260502062821 | 55 | 185 | 7.0 | 10.4 | 0.00 | 0.00 | 0.00 | 44 | 1015.9 |
| 20260502062333 | 55 | 209 | 7.8 | 13.0 | 0.00 | 0.00 | 0.00 | 44 | 1015.9 |
| 20260502061824 | 55 | 211 | 9.6 | 14.8 | 0.00 | 0.00 | 0.00 | 44 | 1015.8 |
| 20260502061317 | 55 | 220 | 9.6 | 14.8 | 0.00 | 0.00 | 0.00 | 45 | 1016.0 |
| 20260502060830 | 56 | 209 | 9.6 | 15.6 | 0.00 | 0.00 | 0.00 | 45 | 1015.8 |
| 20260502060314 | 56 | 232 | 9.6 | 15.6 | 0.00 | 0.00 | 0.00 | 45 | 1015.9 |
| 20260502055826 | 56 | 221 | 7.8 | 12.2 | 0.00 | 0.00 | 0.00 | 45 | 1015.9 |
| 20260502055318 | 56 | 200 | 7.8 | 14.8 | 0.00 | 0.00 | 0.00 | 46 | 1015.9 |
| 20260502054815 | 56 | 207 | 10.4 | 14.8 | 0.00 | 0.00 | 0.00 | 45 | 1016.0 |
| 20260502054347 | 56 | 209 | 8.7 | 11.3 | 0.00 | 0.00 | 0.00 | 45 | 1015.9 |
| 20260502053837 | 57 | 192 | 7.8 | 13.0 | 0.00 | 0.00 | 0.00 | 44 | 1016.0 |
| 20260502053328 | 57 | 204 | 9.6 | 13.0 | 0.00 | 0.00 | 0.00 | 44 | 1015.9 |
| 20260502052840 | 57 | 215 | 9.6 | 13.0 | 0.00 | 0.00 | 0.00 | 44 | 1016.0 |
| 20260502052330 | 57 | 201 | 7.8 | 13.9 | 0.00 | 0.00 | 0.00 | 44 | 1016.0 |
| 20260502051822 | 57 | 224 | 10.4 | 13.9 | 0.00 | 0.00 | 0.00 | 44 | 1015.8 |
| 20260502051334 | 57 | 211 | 8.7 | 13.0 | 0.00 | 0.00 | 0.00 | 44 | 1015.9 |